Lid_Strength_Index
-1 0 1 5 9 11 14 11 10 10 9 8 6 6 8 7 8 11 3 1 0 0 0 -0 -1 -1 -1 -1 -1 -1 -1 -1 -1 -1 -1 -1 -1 -1 -1 -1 -1 -1 -1 -1 -1 -1 -1 -2 -2
-0 0 3 6 12 15 14 9 10 9 7 6 5 6 7 8 4 4 3 0 -0 0 0 0 -1 -1 -1 -1 -1 -1 -1 -1 -1 -1 -1 -1 -1 -1 -1 -1 -1 -1 -1 -1 -2 -2 -2 -1 -2
0 1 6 9 12 15 14 10 9 8 6 6 7 5 6 7 4 3 1 0 -0 0 0 0 -1 -1 -1 -1 -1 -1 -1 -1 -1 -1 -1 -1 -1 -1 -1 -1 -1 -2 -2 -2 -2 -2 -2 -2 -2
2 5 7 11 13 12 11 9 8 8 6 5 5 7 4 2 3 2 0 -0 0 0 1 -0 -1 -1 -1 -1 -1 -1 -1 -1 -1 -1 -1 -1 -1 -1 -1 -1 -1 -2 -2 -2 -2 -2 -2 -2 -2
5 7 10 12 12 10 8 8 8 8 7 7 5 8 7 3 1 1 1 -0 0 0 0 -0 -1 -1 -1 -1 -1 -1 -1 -1 -1 -1 -1 -1 -2 -2 -2 -2 -2 -2 -2 -2 -2 -2 -2 -2 -2
7 8 12 14 12 9 8 7 7 7 7 6 6 7 7 3 3 1 0 0 -0 0 0 1 -1 -1 -1 -1 -1 -1 -1 -1 -1 -1 -2 -2 -2 -2 -2 -2 -2 -2 -2 -2 -2 -2 -2 -2 -2
8 10 12 12 12 10 9 7 8 8 7 6 5 8 6 4 3 2 1 1 0 2 2 2 2 -0 -1 -1 -1 -1 -1 -2 -2 -2 -2 -2 -1 -1 -2 -1 -2 -2 -2 -2 -2 -2 -2 -2 -2
8 9 12 12 12 11 8 7 7 7 7 4 4 9 8 5 3 3 3 2 2 2 1 1 0 1 0 -0 -1 -1 -1 -2 -2 -1 -1 -1 -1 -1 -2 -1 -1 -2 -2 -2 -2 -2 -2 -2 -2
8 10 12 12 11 11 7 8 6 4 6 5 5 5 3 2 2 2 3 3 2 2 3 2 2 1 -0 -1 -1 -1 -1 -1 -1 -1 -1 -0 -0 -1 -1 -1 -2 -1 -1 -1 -1 -1 -2 -2 -1
11 12 11 8 7 9 8 8 7 7 7 7 5 3 2 2 2 3 3 3 3 4 4 4 3 3 1 -0 0 0 0 1 1 0 -1 -0 -0 -1 -1 -1 -2 -2 -2 -2 -1 -1 -1 -1 -1
9 12 8 7 6 7 8 8 6 7 9 7 7 5 4 3 3 3 4 4 4 4 4 4 4 3 3 1 0 1 1 1 0 0 0 0 -0 -0 -0 1 0 -1 -1 -1 -1 -1 -1 -1 -1
9 7 7 7 6 7 8 7 8 7 7 5 4 4 4 4 4 3 5 5 5 5 3 1 1 3 4 2 0 0 1 1 1 0 -0 -0 -1 -0 0 0 -0 -0 -1 -1 -1 -1 -0 -0 -0
8 8 7 6 6 7 6 8 8 7 5 4 4 4 4 4 4 3 4 4 2 2 1 1 1 2 3 4 1 0 0 1 1 1 1 0 1 1 1 2 1 1 -0 -0 -0 -1 -0 -0 -0
7 7 8 7 7 7 8 8 7 7 5 5 5 5 4 4 4 3 3 3 3 2 2 1 2 3 4 3 1 0 0 0 1 2 1 1 2 2 3 2 2 1 0 0 -0 1 -0 -0 -0
6 10 8 8 8 8 7 9 9 6 5 6 5 5 4 4 3 3 2 2 3 3 2 2 2 3 4 2 1 2 1 1 2 1 1 1 2 3 3 2 2 1 1 1 0 -0 -0 -0 1
9 10 13 9 8 7 8 13 8 5 6 6 6 5 5 4 3 3 2 2 2 3 2 2 2 2 3 3 3 2 2 2 1 2 2 2 2 2 3 2 2 1 1 1 1 1 1 0 1
11 13 13 12 8 8 9 12 8 6 6 7 6 6 5 5 4 3 2 2 2 2 2 3 2 3 3 3 3 3 3 3 2 2 2 2 2 1 2 2 1 1 1 1 2 1 1 1 1
13 13 13 13 10 9 11 12 8 7 7 7 7 6 6 5 4 3 2 1 2 2 2 3 3 3 3 3 3 3 3 3 3 2 2 1 1 1 1 1 1 1 2 1 1 2 1 1 1
10 11 13 11 9 10 12 12 10 8 7 7 7 7 6 5 3 3 2 1 1 1 2 3 3 4 4 4 4 4 4 4 3 3 2 1 1 1 1 1 1 1 2 2 1 2 2 2 1
10 12 13 11 9 10 11 12 10 8 8 7 7 7 6 5 4 3 3 2 2 2 2 3 3 5 5 4 4 4 4 4 4 3 3 2 1 1 0 1 1 2 2 2 2 2 3 2 2
12 12 12 12 10 10 11 13 12 9 8 7 6 6 5 5 5 4 3 3 2 2 2 3 3 4 5 4 4 4 4 4 4 4 3 3 2 1 1 1 2 2 2 2 2 2 3 4 3
13 9 10 11 12 16 11 17 13 11 9 8 7 7 6 5 4 4 3 3 3 2 2 2 3 4 4 4 5 5 5 5 5 4 4 3 2 2 1 1 2 2 2 2 2 2 3 3 4
11 8 10 10 13 14 14 16 13 11 11 10 8 7 7 6 5 4 4 3 2 2 3 2 4 4 4 4 4 5 5 5 4 4 4 4 3 2 2 2 2 2 2 2 2 3 3 3 4
7 9 11 11 13 17 15 15 15 13 11 9 8 7 6 6 5 5 4 3 3 3 3 3 4 4 4 4 4 4 4 4 4 4 4 4 4 3 3 3 2 2 2 2 3 3 3 3 3
10 12 16 17 17 18 14 15 13 10 9 8 8 7 6 7 7 6 5 4 4 4 3 3 4 4 4 4 4 4 4 4 4 4 4 4 4 4 3 3 3 2 2 2 3 3 3 3 3
10 12 15 18 18 17 14 17 14 8 7 7 6 7 7 7 7 6 5 4 5 3 3 3 4 4 4 4 4 4 4 4 4 4 4 4 4 4 3 3 3 3 2 3 3 3 3 4 4
11 13 12 15 15 18 16 13 10 9 9 8 9 9 8 7 7 7 6 5 5 3 3 4 4 4 4 4 4 4 4 3 4 3 4 4 4 3 3 3 4 3 3 3 3 4 4 3 4
11 10 14 14 19 21 17 16 15 12 10 9 10 9 9 7 7 7 6 5 5 3 3 4 4 4 4 4 4 3 3 3 3 3 3 4 4 4 4 4 4 3 3 3 3 4 3 3 3
12 12 13 13 14 18 19 16 10 10 9 9 10 9 9 7 7 7 6 6 5 4 4 4 4 4 4 4 4 3 3 3 3 3 4 4 4 4 4 4 4 4 3 3 3 3 3 3 3
11 12 12 14 15 15 15 16 9 9 8 8 9 9 9 7 8 7 7 7 6 5 5 4 4 4 4 4 4 4 3 3 3 3 3 3 4 4 4 4 4 4 3 4 4 4 3 3 4